Weather History for Great Falls, MT

Change the Weather History Date:

Saturday, January 26, 2013

  Actual Average Record
Temperature  
Mean Temperature 44 °F 26 °F  
Max Temperature 56 °F 36 °F 56 °F (2013)
Min Temperature 32 °F 16 °F -37 °F (1916)
Degree Days  
Heating Degree Days 21 39  
Month to date heating degree days 894 1038  
Since 1 July heating degree days 3717 4255  
Cooling Degree Days 0 0  
Month to date cooling degree days 0 0  
Year to date cooling degree days 0 0  
Moisture  
Dew Point 30 °F    
Average Humidity 61    
Maximum Humidity 92    
Minimum Humidity 30    
Precipitation  
Precipitation T in 0.02 in 0.39 in (1893)
Month to date precipitation 0.49 0.43  
Year to date precipitation 0.49 0.43  
Snow  
Snow T in 0.20 in 6.00 in (1893)
Month to date snowfall 8.2 7.2  
Since 1 July snowfall 40.5 30.4  
Snow Depth 0.00 in    
Sea Level Pressure  
Sea Level Pressure 29.79 in    
Wind  
Wind Speed 11 mph (SW)    
Max Wind Speed 23 mph    
Max Gust Speed 29 mph    
Visibility 9 miles    
Events Rain , Snow    
T = Trace of Precipitation, MM = Missing Value Source: NWS Daily Summary

Daily Weather History Graph

Daily Weather History Graph

Search for Another Location

Airport:

Trip Planner

Search our weather history database for the weather conditions in past years. The results will help you decide how hot, cold, wet, or windy it might be!

Date:

Astronomy

Jan. 26, 2013 Rise Set
Actual Time 7:58 AM MST 5:18 PM MST
Civil Twilight 7:25 AM MST 5:51 PM MST
Nautical Twilight 6:47 AM MST 6:29 PM MST
Astronomical Twilight 6:11 AM MST 7:05 PM MST
Moon 5:20 PM MST (1/26) 7:15 AM MST (1/26)
Length of Visible Light 10h 26m
Length of Day
9h 19m
Full, 100% of the Moon is Illuminated
Jan 26
Full
Jan 26
Full
Feb 3
Last Quarter
Feb 10
New
Feb 17
First Quarter

Hourly Weather History & Observations

Time (MST) Temp. Windchill Dew Point Humidity Pressure Visibility Wind Dir Wind Speed Gust Speed Precip Events Conditions
12:53 AM 45.0 °F 37.6 °F 30.9 °F 58% 29.83 in 10.0 mi SSW 17.3 mph - N/A   Mostly Cloudy
1:53 AM 43.0 °F 35.7 °F 30.9 °F 62% 29.84 in 10.0 mi SSW 15.0 mph - N/A   Partly Cloudy
2:53 AM 42.1 °F 36.1 °F 30.9 °F 65% 29.84 in 10.0 mi SSW 10.4 mph - N/A   Clear
3:53 AM 39.0 °F 31.4 °F 28.9 °F 67% 29.84 in 10.0 mi SSW 12.7 mph - N/A   Clear
4:53 AM 39.9 °F 31.8 °F 28.9 °F 65% 29.84 in 10.0 mi SSW 15.0 mph - N/A   Clear
5:53 AM 39.0 °F 31.0 °F 28.9 °F 67% 29.85 in 10.0 mi SSW 13.8 mph - N/A   Clear
6:53 AM 41.0 °F 35.2 °F 30.0 °F 65% 29.84 in 10.0 mi SSW 9.2 mph - N/A   Mostly Cloudy
7:53 AM 39.0 °F 33.4 °F 28.0 °F 65% 29.84 in 10.0 mi SSW 8.1 mph - N/A   Mostly Cloudy
8:53 AM 41.0 °F 34.7 °F 28.9 °F 62% 29.83 in 10.0 mi SSW 10.4 mph - N/A   Clear
9:53 AM 46.0 °F 43.9 °F 28.9 °F 51% 29.80 in 10.0 mi South 4.6 mph - N/A   Clear
10:53 AM 50.0 °F - 30.0 °F 46% 29.78 in 10.0 mi SSW 9.2 mph - N/A   Clear
11:53 AM 54.0 °F - 28.0 °F 37% 29.74 in 10.0 mi South 10.4 mph - N/A   Clear
12:53 PM 55.0 °F - 25.0 °F 31% 29.70 in 10.0 mi SW 19.6 mph - N/A   Clear
1:53 PM 53.1 °F - 26.1 °F 35% 29.69 in 10.0 mi WSW 17.3 mph 24.2 mph N/A   Clear
2:53 PM 44.1 °F 36.2 °F 30.0 °F 58% 29.73 in 10.0 mi North 18.4 mph 23.0 mph N/A   Overcast
3:05 PM 42.8 °F 34.3 °F 30.2 °F 61% 29.69 in 10.0 mi NNW 19.6 mph - N/A   Overcast
3:53 PM 41.0 °F 32.5 °F 32.0 °F 70% 29.77 in 10.0 mi NNW 17.3 mph - 0.00 in   Overcast
4:53 PM 39.0 °F 31.0 °F 30.9 °F 73% 29.80 in 10.0 mi NNW 13.8 mph - N/A   Overcast
5:53 PM 37.9 °F 32.1 °F 30.9 °F 76% 29.83 in 10.0 mi NW 8.1 mph - N/A   Overcast
6:53 PM 37.4 °F 29.8 °F 32.0 °F 81% 29.76 in 10.0 mi SSE 11.5 mph - N/A Rain Light Rain
7:23 PM 35.6 °F 28.0 °F 32.0 °F 87% 29.77 in 7.0 mi South 10.4 mph - 0.00 in Snow Light Snow
7:39 PM 35.6 °F 29.2 °F 32.0 °F 87% 29.77 in 9.0 mi SSE 8.1 mph - 0.00 in   Overcast
7:53 PM 35.1 °F 27.9 °F 32.0 °F 89% 29.84 in 10.0 mi SE 9.2 mph - 0.00 in   Overcast
8:53 PM 34.0 °F 28.8 °F 30.9 °F 89% 29.82 in 10.0 mi South 5.8 mph - N/A   Overcast
9:53 PM 33.1 °F 30.0 °F 30.0 °F 89% 29.81 in 10.0 mi WSW 3.5 mph - N/A   Overcast
10:40 PM 32.0 °F 27.5 °F 30.2 °F 93% 29.75 in 2.5 mi West 4.6 mph - N/A   Overcast
10:43 PM 32.0 °F 26.4 °F 30.2 °F 93% 29.75 in 1.2 mi WSW 5.8 mph - N/A   Overcast
10:53 PM 32.0 °F 27.5 °F 30.0 °F 92% 29.81 in 0.8 mi SW 4.6 mph - N/A   Overcast
10:59 PM 32.0 °F 27.5 °F 30.2 °F 93% 29.74 in 1.5 mi SW 4.6 mph - N/A   Overcast
11:03 PM 32.0 °F 27.5 °F 30.2 °F 93% 29.74 in 4.0 mi SW 4.6 mph - N/A   Overcast
11:11 PM 32.0 °F 27.5 °F 30.2 °F 93% 29.75 in 10.0 mi SW 4.6 mph - N/A   Overcast
11:53 PM 34.0 °F 27.2 °F 30.9 °F 89% 29.80 in 10.0 mi SSW 8.1 mph - N/A   Overcast